Regional Weather Roundup
Issued by NWS

Home | Current Version | Previous Version | Text Only | Print | Product List | Glossary Off
Versions: 1 2 3 4 5 6 7 8 9 10 11 12 13 14 15 16 17 18 19 20 21 22 23 24 25 26 27 28 29 30 31 32 33 34 35 36 37 38 39 40 41 42 43 44 45 46 47 48 49 50

979
ASUS44 KLIX 221001
RWRLA
LOUISIANA WEATHER ROUNDUP
NATIONAL WEATHER SERVICE NEW ORLEANS LA
500 AM CDT MON SEP 22 2014

NOTE: "FAIR" INDICATES FEW OR NO CLOUDS BELOW 12,000 FEET WITH NO
      SIGNIFICANT WEATHER AND/OR OBSTRUCTIONS TO VISIBILITY.
      SKY/WX - SKY CONDITION AND SIGNIFICANT WEATHER.
      TMP - AIR TEMPERATURE.    DP   - DEWPOINT TEMPERATURE.
      RH  - RELATIVE HUMIDITY.  PRES - PRESSURE.
      HX  - HEAT INDEX.         WCI  - WIND CHILL INDEX.

*  THESE STATIONS ARE NOT NWS OR FAA STATIONS AND ARE NOT UNDER
   NWS QUALITY CONTROL.

LAZ040-048-061>063-065-066-069-221100-
SOUTHEAST LOUISIANA

CITY           SKY/WX    TMP DP  RH WIND       PRES   REMARKS
N.O. AUDUBON     N/A     73  73 100 MISG        N/A
N.O. INTL ARPT PTCLDY    73  70  90 CALM      30.00S
N.O. LAKEFRONT CLEAR     79  71  76 N3        30.01R
N.O. DOWNTOWN* FAIR      79  66  65 CALM      30.01R
SLIDELL        CLEAR     67  64  90 CALM      30.01R
BATON ROUGE    CLEAR     69  67  93 CALM      30.02R
BOOTHVILLE     CLEAR     80  73  79 NE5       29.99R
BELLE CHASSE   CLEAR     70  66  87 CALM      30.00R
BOGALUSA*        N/A     66  63  89 CALM      30.03R
GALLIANO*      NOT AVBL
NEW ROADS*     FAIR      69  68  98 CALM      30.02S
GONZALES*      FAIR      68  68 100 CALM      30.01R
HAMMOND*       NOT AVBL
HOUMA*         CLEAR     70  66  87 CALM      30.00S
PORT FOURCHON* SUNNY     79  73  83 N7        30.02S

$$

LAZ041-044-053-054-221100-
SOUTHWEST LOUISIANA

CITY           SKY/WX    TMP DP  RH WIND       PRES   REMARKS
LAKE CHARLES   CLEAR     71  69  93 CALM      30.02S
LAFAYETTE      CLEAR     72  71  97 CALM      30.02S
PATTERSON      CLEAR     70  68  94 CALM      30.04R
SALT POINT       N/A     74  71  91 CALM      30.00S
NEW IBERIA     CLEAR     70  68  93 N3        30.02S
CHENAULT AIRPK NOT AVBL

$$

LAZ027-028-221100-
CENTRAL LOUISIANA

CITY           SKY/WX    TMP DP  RH WIND       PRES   REMARKS
FORT POLK      MOCLDY    74  70  87 N8        30.05R
ALEXANDRIA INT CLEAR     73  70  90 N6        30.03S
ALEXANDRIA     CLEAR     75  70  84 CALM      30.05R

$$

LAZ001-002-221100-
NORTHWEST LOUISIANA

CITY           SKY/WX    TMP DP  RH WIND       PRES   REMARKS
SHREVEPORT     CLOUDY    76  64  66 NE9       30.09R
BARKSDALE AFB  CLOUDY    74  65  73 NE5       30.10R
DTN SHREVEPORT CLOUDY    75  63  66 VRB6      30.10R

$$

LAZ014-016-221100-
NORTHEAST LOUISIANA

CITY           SKY/WX    TMP DP  RH WIND       PRES   REMARKS
MONROE         PTCLDY    71  59  65 N5        30.09R
TALLULAH       PTCLDY    71  60  68 N6        30.06R

$$




USA.gov is the U.S. government's official web portal to all federal, state and local government web resources and services.